DH4NBB-12 Weather Reports


time (UTC)temp
C
wind
direction
speed
KPH
gust
KPH
rain 1hr
cm
rain 24hr
cm
rain mn
cm
humidity
%
barometer
mb
20240418172425 8 0 0.0 0.0 0.00 0.00 0.00 73 979.0
20240418170946 9 0 0.0 0.0 0.00 0.00 0.00 67 978.0
20240418165443 13 0 0.0 0.0 0.00 0.00 0.00 58 982.0
20240418163941 11 0 0.0 0.0 0.00 0.00 0.00 65 980.0
20240418162437 15 0 0.0 0.0 0.00 0.00 0.00 59 982.0
20240418160934 11 0 0.0 0.0 0.00 0.00 0.00 67 982.0
20240418155432 9 0 0.0 0.0 0.00 0.00 0.00 70 979.0
20240418153928 9 0 0.0 0.0 0.00 0.00 0.00 71 979.0
20240418152425 11 0 0.0 0.0 0.00 0.00 0.00 63 980.0
20240418150922 12 0 0.0 0.0 0.00 0.00 0.00 63 979.0
20240418145419 16 0 0.0 0.0 0.00 0.00 0.00 55 982.0
20240418143916 14 0 0.0 0.0 0.00 0.00 0.00 58 981.0
20240418142310 13 0 0.0 0.0 0.00 0.00 0.00 59 982.0
20240418140806 13 0 0.0 0.0 0.00 0.00 0.00 65 983.0
20240418140000 11 0 0.0 0.0 0.00 0.00 0.00 71 983.0
20240418134419 9 0 0.0 0.0 0.00 0.00 0.00 72 981.0
20240418132958 10 0 0.0 0.0 0.00 0.00 0.00 70 981.0
20240418131457 9 0 0.0 0.0 0.00 0.00 0.00 74 982.0
20240418123743 9 0 0.0 0.0 0.00 0.00 0.00 70 982.0
20240418122953 8 0 0.0 0.0 0.00 0.00 0.00 74 982.0
20240418121452 7 0 0.0 0.0 0.00 0.00 0.00 80 981.0
20240418115644 6 0 0.0 0.0 0.00 0.00 0.00 83 980.0
20240418114450 6 0 0.0 0.0 0.00 0.00 0.00 82 980.0
20240418112949 7 0 0.0 0.0 0.00 0.00 0.00 77 980.0
20240418110653 7 0 0.0 0.0 0.00 0.00 0.00 74 980.0
20240418105318 8 0 0.0 0.0 0.00 0.00 0.00 72 981.0
20240418103651 9 0 0.0 0.0 0.00 0.00 0.00 70 981.0
20240418102331 8 0 0.0 0.0 0.00 0.00 0.00 76 981.0
20240418101359 8 0 0.0 0.0 0.00 0.00 0.00 76 981.0
20240418095751 8 0 0.0 0.0 0.00 0.00 0.00 75 981.0
20240418094339 7 0 0.0 0.0 0.00 0.00 0.00 74 981.0
20240418092940 7 0 0.0 0.0 0.00 0.00 0.00 76 981.0
20240418091439 7 0 0.0 0.0 0.00 0.00 0.00 75 981.0
20240418085938 7 0 0.0 0.0 0.00 0.00 0.00 78 981.0
20240418083603 6 0 0.0 0.0 0.00 0.00 0.00 79 980.0
20240418082936 6 0 0.0 0.0 0.00 0.00 0.00 81 981.0
20240418075933 5 0 0.0 0.0 0.00 0.00 0.00 83 979.0
20240418074432 5 0 0.0 0.0 0.00 0.00 0.00 83 979.0
20240418072931 5 0 0.0 0.0 0.00 0.00 0.00 85 979.0
20240418071430 4 0 0.0 0.0 0.00 0.00 0.00 86 979.0
20240418065929 4 0 0.0 0.0 0.00 0.00 0.00 84 978.0
20240418064428 4 0 0.0 0.0 0.00 0.00 0.00 86 978.0
20240418062927 4 0 0.0 0.0 0.00 0.00 0.00 85 978.0
20240418061426 5 0 0.0 0.0 0.00 0.00 0.00 85 978.0
20240418055925 4 0 0.0 0.0 0.00 0.00 0.00 86 978.0
20240418054424 4 0 0.0 0.0 0.00 0.00 0.00 86 978.0
20240418052923 3 0 0.0 0.0 0.00 0.00 0.00 87 977.0
20240418051422 3 0 0.0 0.0 0.00 0.00 0.00 89 977.0
20240418045920 2 0 0.0 0.0 0.00 0.00 0.00 88 977.0
20240418044419 2 0 0.0 0.0 0.00 0.00 0.00 89 976.0
20240418042918 2 0 0.0 0.0 0.00 0.00 0.00 87 975.0
20240418041417 2 0 0.0 0.0 0.00 0.00 0.00 86 975.0
20240418035916 2 0 0.0 0.0 0.00 0.00 0.00 88 975.0
20240418034415 2 0 0.0 0.0 0.00 0.00 0.00 89 975.0
20240418032913 3 0 0.0 0.0 0.00 0.00 0.00 88 975.0
20240418031412 3 0 0.0 0.0 0.00 0.00 0.00 88 975.0
20240418025911 3 0 0.0 0.0 0.00 0.00 0.00 89 975.0
20240418024410 3 0 0.0 0.0 0.00 0.00 0.00 87 975.0
20240418022909 3 0 0.0 0.0 0.00 0.00 0.00 87 975.0
20240418021408 3 0 0.0 0.0 0.00 0.00 0.00 86 975.0
20240418015907 3 0 0.0 0.0 0.00 0.00 0.00 86 975.0
20240418014406 3 0 0.0 0.0 0.00 0.00 0.00 88 974.0
20240418012905 3 0 0.0 0.0 0.00 0.00 0.00 88 974.0
20240418011404 3 0 0.0 0.0 0.00 0.00 0.00 87 974.0
20240418005903 4 0 0.0 0.0 0.00 0.00 0.00 86 974.0
20240418004402 4 0 0.0 0.0 0.00 0.00 0.00 85 974.0
20240418002900 4 0 0.0 0.0 0.00 0.00 0.00 85 974.0
20240418001359 4 0 0.0 0.0 0.00 0.00 0.00 85 974.0
20240417235858 4 0 0.0 0.0 0.00 0.00 0.00 85 974.0
20240417234357 4 0 0.0 0.0 0.00 0.00 0.00 85 974.0
20240417232856 4 0 0.0 0.0 0.00 0.00 0.00 84 974.0
20240417231355 5 0 0.0 0.0 0.00 0.00 0.00 83 974.0
20240417225854 5 0 0.0 0.0 0.00 0.00 0.00 83 974.0
20240417224352 5 0 0.0 0.0 0.00 0.00 0.00 82 974.0
20240417222851 4 0 0.0 0.0 0.00 0.00 0.00 83 973.0
20240417221350 4 0 0.0 0.0 0.00 0.00 0.00 84 973.0
20240417215849 5 0 0.0 0.0 0.00 0.00 0.00 82 973.0
20240417214348 5 0 0.0 0.0 0.00 0.00 0.00 81 973.0
20240417212847 5 0 0.0 0.0 0.00 0.00 0.00 80 973.0
20240417211346 5 0 0.0 0.0 0.00 0.00 0.00 80 973.0
20240417205845 5 0 0.0 0.0 0.00 0.00 0.00 78 973.0
20240417204344 5 0 0.0 0.0 0.00 0.00 0.00 78 973.0
20240417202843 5 0 0.0 0.0 0.00 0.00 0.00 77 972.0
20240417201342 5 0 0.0 0.0 0.00 0.00 0.00 77 972.0
20240417195840 6 0 0.0 0.0 0.00 0.00 0.00 72 972.0
20240417194339 6 0 0.0 0.0 0.00 0.00 0.00 69 972.0
20240417192838 6 0 0.0 0.0 0.00 0.00 0.00 69 972.0
20240417191337 6 0 0.0 0.0 0.00 0.00 0.00 74 971.0
20240417185836 6 0 0.0 0.0 0.00 0.00 0.00 74 971.0
20240417184335 7 0 0.0 0.0 0.00 0.00 0.00 69 971.0
20240417182834 8 0 0.0 0.0 0.00 0.00 0.00 61 970.0
20240417181229 10 0 0.0 0.0 0.00 0.00 0.00 58 971.0
20240417175832 11 0 0.0 0.0 0.00 0.00 0.00 52 970.0